SCP
-0 -0 -0 -0 -0 -0 -0 -0 -0 0 0 0 0 0 0 0 0 -0 -0 -0 -0 -0 -0 -0 -0 -0 -0 -0 -0 -0 0 0 0 0 0 0 -0 -0 -0 0 0 0 -0
-0 -0 -0 -0 -0 -0 -0 -0 0 0 0 0 0 0 0 0 0 -0 -0 -0 -0 -0 -0 -0 -0 -0 -0 0 0 0 0 0 0 0 0 0 -0 -0 -0 0 0 0 0
-0 -0 -0 -0 -0 -0 -0 -0 -0 0 0 -0 -0 -0 -0 -0 -0 -0 -0 -0 -0 -0 -0 -0 -0 -0 -0 -0 0 0 0 0 0 0 0 0 -0 -0 -0 -0 0 0 0
-0 0 0 -0 0 -0 -0 -0 -0 0 -0 -0 -0 -0 -0 -0 -0 -0 -0 -0 -0 -0 -0 -0 -0 -0 -0 -0 -0 0 0 0 0 0 0 0 -0 0 -0 -0 0 0 0
-0 -0 0 -0 -0 -0 -0 -0 0 0 -0 -0 -0 -0 -0 -0 -0 -0 -0 -0 -0 -0 -0 -0 -0 -0 -0 -0 -0 -0 0 0 0 0 0 0 0 0 -0 -0 -0 0 0
-0 -0 -0 -0 -0 -0 -0 -0 0 0 -0 -0 -0 -0 -0 -0 -0 -0 -0 -0 -0 -0 -0 -0 -0 -0 -0 -0 -0 -0 0 0 0 0 0 0 0 0 0 -0 0 0 0
-0 -0 -0 -0 -0 -0 -0 -0 0 0 -0 -0 -0 -0 0 -0 -0 -0 0 -0 -0 -0 -0 -0 -0 -0 -0 -0 -0 0 0 0 0 0 0 0 0 0 0 0 0 0 0
-0 -0 -0 -0 -0 -0 -0 -0 0 0 0 0 0 0 -0 -0 0 0 0 0 0 -0 -0 -0 -0 -0 -0 -0 -0 0 0 0 0 0 0 0 0 0 0 0 0 0 0
-0 -0 0 0 -0 -0 0 0 0 0 0 0 0 -0 -0 -0 -0 0 0 0 0 0 0 -0 -0 -0 -0 -0 -0 -0 0 0 0 0 0 0 0 0 0 0 0 0 0
0 0 0 0 0 0 0 0 0 0 0 1 0 0 -0 -0 0 0 0 0 0 0 0 0 -0 -0 -0 -0 -0 -0 0 0 0 0 0 0 0 0 0 0 0 0 0
-0 -0 0 0 0 0 0 0 0 1 0 0 0 0 -0 -0 0 0 0 0 0 0 0 0 -0 -0 -0 0 0 0 -0 0 0 0 0 0 0 0 0 0 0 0 0
-0 0 0 0 0 0 0 1 1 0 0 0 0 0 0 -0 0 0 0 0 0 0 0 0 0 0 -0 -0 0 0 0 0 0 0 0 1 0 0 0 0 0 0 0
0 0 0 0 0 0 0 1 1 0 0 0 0 0 0 -0 0 0 0 0 0 0 0 0 0 0 0 0 0 0 0 0 0 0 0 1 1 0 0 0 0 0 -0
0 0 0 0 0 1 1 0 0 0 0 0 -0 -0 -0 -0 0 0 0 0 0 0 0 0 0 0 0 0 0 0 0 0 0 0 0 0 0 0 0 0 0 0 -0
0 0 0 0 1 1 1 0 0 0 0 0 -0 -0 -0 0 0 0 0 0 0 0 0 0 0 0 0 0 0 0 0 0 0 0 0 0 0 0 0 0 0 0 0
0 0 1 1 1 1 1 1 0 0 0 0 -0 -0 0 0 0 0 0 0 0 0 0 0 0 0 0 0 0 0 0 0 0 0 0 0 1 1 1 0 0 0 0
1 2 1 1 2 2 1 0 1 0 0 0 0 0 0 0 0 0 0 0 0 0 0 0 0 0 0 0 0 0 0 0 0 0 0 0 0 0 1 1 1 1 0
2 1 1 1 1 1 1 0 1 0 0 0 0 0 0 0 0 0 0 0 0 0 0 0 0 0 0 0 0 0 0 0 0 0 0 0 0 0 1 1 1 0 0
3 1 1 1 1 1 0 0 1 0 0 0 0 0 0 0 0 0 0 0 0 0 0 0 0 0 0 0 0 0 0 0 0 0 0 0 0 0 0 0 0 0 0
2 1 1 1 1 1 1 0 1 0 0 0 0 0 0 0 0 0 0 0 0 0 0 0 0 0 0 0 0 0 0 0 0 0 0 0 0 0 0 0 0 0 0
2 1 0 1 1 1 1 0 0 1 0 0 0 0 0 0 0 0 0 0 0 0 0 0 0 0 0 0 0 0 0 0 0 0 0 0 0 0 0 0 0 0 0
1 1 0 0 1 1 1 0 1 1 1 1 0 0 0 0 0 0 0 0 0 0 0 0 0 0 0 0 0 0 0 0 0 0 0 0 0 0 0 0 0 0 0
0 0 -0 -0 1 2 1 1 1 2 1 1 1 0 1 0 0 0 0 0 0 0 0 0 0 0 0 0 0 0 0 0 0 0 0 0 0 0 0 0 0 0 0
0 0 0 -0 1 2 2 1 1 1 1 1 0 1 0 0 0 0 0 0 0 0 0 0 0 0 0 0 0 0 0 0 0 0 0 0 0 0 0 0 0 0 0
0 -0 -0 -0 1 3 3 1 1 2 1 0 0 0 0 0 0 0 0 0 0 0 0 0 0 0 0 0 0 0 0 0 0 0 0 0 0 0 0 0 0 0 0
0 0 1 0 1 4 2 1 2 3 1 1 1 0 0 0 0 0 0 0 0 0 0 0 0 0 0 0 0 0 0 0 0 0 0 0 0 0 0 0 0 0 0
Wind_Speed_500mb
34 31 27 25 24 23 22 21 20 20 21 22 23 24 25 26 28 29 31 32 33 32 32 30 29 28 26 24 21 20 20 18 15 13 12 14 19 20 24 25 24 23 18
38 32 27 24 22 21 20 19 18 17 18 18 20 21 23 25 27 29 31 31 32 33 34 33 32 30 29 27 26 24 19 17 14 9 10 10 10 13 18 20 21 18 17
31 31 27 24 21 19 18 17 15 14 15 16 16 18 20 22 24 26 29 31 34 35 36 36 36 35 34 31 28 25 24 19 12 8 14 16 16 3 11 16 16 14 15
26 27 25 23 21 19 17 15 13 12 12 12 14 16 18 20 22 25 29 32 34 36 37 38 39 39 37 33 31 28 24 22 17 13 16 22 26 17 4 10 13 11 9
16 27 25 22 20 17 15 13 11 10 9 9 12 13 15 17 19 23 25 28 30 32 34 35 35 37 38 38 33 30 28 25 19 25 18 30 6 12 5 6 14 13 6
21 21 20 19 17 15 13 9 8 7 7 8 10 9 12 14 16 19 21 26 31 36 40 41 37 38 40 40 37 33 30 28 20 19 20 23 29 38 10 1 12 17 15
23 18 12 14 15 13 12 8 6 7 7 5 5 6 9 12 14 17 14 28 32 35 40 38 37 41 47 44 39 27 28 35 22 17 19 18 19 22 11 8 15 17 17
26 17 11 15 15 14 10 7 6 7 5 3 3 4 6 9 14 21 19 27 33 36 38 36 34 39 51 38 24 26 32 34 22 27 20 19 18 14 15 17 17 18 23
27 9 5 16 16 14 12 10 8 8 7 7 5 2 2 5 13 13 24 27 31 33 33 34 33 41 41 29 29 31 37 20 27 37 26 22 13 12 12 15 15 15 22
13 13 5 9 13 11 14 13 8 12 11 10 12 8 8 6 9 11 24 25 22 26 26 28 30 38 40 33 30 31 32 14 19 32 31 17 17 14 20 22 23 24 25
21 25 5 8 12 7 19 11 18 22 9 8 6 9 6 13 18 12 21 23 15 23 24 27 31 38 40 32 30 24 34 26 22 23 35 30 29 35 29 27 28 30 35
31 23 10 9 9 4 12 20 23 20 18 24 43 29 9 4 8 6 6 6 15 22 28 33 40 41 45 41 44 44 42 31 33 36 36 39 43 35 28 27 30 36 41
33 30 37 20 19 14 14 18 21 18 26 21 8 26 35 5 19 20 23 28 31 35 33 45 48 44 46 40 40 40 40 39 35 36 30 42 43 47 35 26 33 41 44
45 38 34 21 23 16 15 9 10 14 20 16 12 31 25 23 21 19 26 31 29 30 43 47 47 57 40 45 46 43 35 35 37 36 36 34 35 35 37 44 36 36 36
38 28 23 24 19 13 7 9 11 12 7 8 18 26 24 26 17 23 28 30 25 33 36 44 46 39 37 42 48 42 38 38 40 41 38 40 46 46 44 41 47 43 35
28 19 32 15 9 13 13 8 8 3 15 15 23 23 25 20 30 37 20 26 27 36 41 48 43 36 42 48 48 50 52 59 50 47 44 40 40 52 41 40 38 29 28
32 26 21 17 15 15 16 13 14 10 13 18 19 13 10 25 29 20 33 40 42 44 48 45 35 36 45 49 54 57 44 38 35 39 40 40 33 37 51 45 27 23 26
30 29 19 13 17 14 10 5 17 11 13 11 27 17 19 19 9 28 44 44 44 48 46 40 43 46 52 61 65 42 37 43 42 38 34 31 32 33 38 37 27 25 20
21 21 16 20 18 8 4 4 10 14 8 12 16 24 33 36 34 34 34 42 42 50 45 53 48 49 63 57 43 47 57 54 54 48 41 34 22 25 25 26 30 24 23
18 23 17 9 14 12 11 2 9 19 22 20 22 13 13 19 25 23 40 38 51 45 52 54 53 66 58 48 51 59 68 51 46 42 47 45 30 27 21 28 25 27 36
22 16 11 8 11 13 11 5 4 16 20 24 18 17 14 17 31 38 38 50 45 55 63 54 53 62 51 53 55 52 52 39 31 16 20 27 28 29 24 21 22 40 36
19 30 19 27 20 12 11 7 14 15 25 20 21 15 18 25 32 36 40 38 44 58 52 50 54 59 48 36 40 43 32 45 18 5 17 21 9 14 14 17 27 31 42
35 58 28 36 32 17 14 14 17 20 22 19 9 13 13 16 26 27 30 35 50 49 45 46 55 42 40 40 36 31 15 10 41 38 30 12 13 5 11 23 25 31 37
17 53 12 20 35 16 15 8 15 17 19 16 11 15 24 34 31 34 35 43 49 47 47 53 55 34 41 43 33 29 29 34 21 43 35 27 23 19 15 11 12 16 22
21 20 21 38 20 18 17 14 17 19 25 26 25 31 28 28 23 37 43 54 49 47 52 58 39 42 43 44 37 35 34 32 34 27 50 30 15 22 20 17 14 14 20
25 7 26 12 20 19 20 21 24 26 37 34 34 28 31 33 43 50 45 45 51 56 54 49 41 44 40 38 32 29 31 34 36 31 26 42 42 36 29 25 24 24 25
Wind_Direction_500mb
141 142 144 136 127 121 114 105 96 89 85 80 77 74 72 70 69 67 65 61 57 52 47 42 36 31 25 18 15 13 10 13 23 32 40 47 49 47 41 23 42 53 61
150 148 147 141 133 125 117 109 100 90 83 77 76 76 76 73 72 69 67 61 56 51 46 39 33 25 18 13 8 4 4 8 17 358 342 13 37 36 51 31 24 44 64
150 152 150 147 140 134 125 116 105 96 87 81 77 76 76 72 73 70 65 59 53 48 43 37 31 25 18 12 8 5 360 359 7 342 313 322 330 314 46 39 11 32 53
154 155 156 153 149 145 139 130 114 101 95 89 85 82 79 75 76 72 65 57 48 41 34 29 24 19 13 9 5 0 1 357 355 341 357 353 293 227 73 25 351 7 46
166 167 162 160 156 153 147 138 121 110 102 95 88 80 84 80 79 75 65 53 44 35 26 19 15 11 6 360 359 358 354 353 351 348 345 10 330 196 187 38 337 316 347
139 155 162 165 166 163 158 144 127 107 87 80 79 73 79 77 69 60 52 41 31 21 12 4 1 1 359 354 348 346 349 355 350 354 350 340 320 306 198 266 311 310 307
157 144 157 179 175 178 172 155 129 100 83 90 93 103 95 80 59 38 37 32 21 21 13 3 6 6 357 355 350 6 14 2 345 343 332 318 320 306 265 251 289 302 296
181 169 192 195 188 192 178 160 135 111 86 70 92 118 100 75 44 31 31 17 13 13 17 9 7 1 360 2 16 4 1 2 16 9 356 332 305 259 246 246 275 291 297
176 161 193 205 195 190 175 158 140 136 121 97 86 70 41 37 31 20 14 4 0 7 5 360 359 356 0 6 356 345 341 3 358 3 339 322 281 261 239 276 279 302 300
189 217 128 181 172 186 169 142 109 134 137 150 157 154 268 314 323 11 359 349 349 357 358 352 351 351 343 334 331 335 342 318 333 347 341 327 282 272 286 292 295 295 295
210 202 198 212 167 161 180 168 156 177 181 210 263 197 177 284 297 328 347 338 330 346 337 332 330 339 331 318 314 320 319 309 285 309 320 308 296 294 280 283 292 295 295
200 191 214 204 168 175 195 199 199 187 283 256 300 215 179 210 290 294 332 8 329 321 314 319 314 325 328 306 300 301 301 307 306 283 299 300 297 278 278 286 290 291 293
181 173 175 139 167 149 187 201 231 292 320 305 272 202 205 277 244 248 265 295 285 303 303 309 324 312 326 319 316 307 294 286 290 286 283 291 278 272 271 298 306 302 303
182 197 208 216 201 205 240 247 271 310 328 14 25 151 168 194 236 271 276 287 289 307 306 314 312 312 317 312 313 316 303 284 284 286 289 289 282 266 281 297 298 301 303
199 199 205 200 198 242 275 247 279 295 329 84 135 154 168 220 270 297 296 301 294 299 302 302 299 315 309 305 304 302 297 285 275 273 281 293 283 280 287 293 294 290 292
177 168 176 195 244 268 282 282 337 69 106 135 153 163 212 248 289 304 290 304 300 312 307 309 322 315 304 300 299 295 293 290 283 278 276 284 298 285 273 278 274 280 289
161 158 166 175 221 264 272 284 115 110 101 116 154 193 286 309 302 315 314 317 311 317 312 319 324 304 304 301 302 295 310 304 294 277 281 285 284 279 267 272 251 257 253
205 202 200 172 228 258 261 192 177 183 221 263 295 257 264 285 255 304 294 300 304 309 314 311 306 304 304 304 310 312 297 290 290 287 282 281 281 296 257 256 251 257 243
199 210 193 199 236 270 284 223 196 246 301 282 9 308 270 270 296 306 281 299 295 320 317 309 307 309 311 311 311 302 305 301 289 272 268 268 290 282 282 254 258 255 268
215 240 245 208 232 270 280 64 222 267 294 303 314 310 275 272 287 280 301 291 312 315 306 316 315 319 313 310 304 303 304 308 308 290 275 271 274 285 251 248 251 255 267
202 227 329 278 280 284 230 149 302 278 305 311 329 297 303 294 299 300 296 314 316 307 313 313 310 324 310 311 312 315 320 332 321 331 0 275 273 265 251 246 252 270 266
21 82 347 290 282 255 198 196 248 278 302 319 325 314 316 282 282 304 314 311 304 306 300 301 314 317 308 319 321 322 330 340 349 260 22 22 276 250 239 267 263 269 277
125 57 269 258 253 256 237 238 253 295 306 309 285 297 262 291 316 304 300 295 303 296 290 305 313 310 310 310 304 302 323 309 322 299 303 299 358 324 252 266 278 281 290
184 313 220 235 252 246 257 277 311 307 311 291 290 292 305 307 297 289 293 304 304 296 304 313 317 304 305 307 303 289 283 288 313 304 297 285 304 315 304 324 301 306 299
107 165 172 268 249 252 288 293 276 286 286 280 293 299 304 307 292 303 303 300 307 304 309 315 305 308 307 299 293 291 286 285 286 265 291 302 290 285 307 323 322 332 328
107 132 299 205 240 292 296 300 315 306 312 301 313 299 306 303 303 311 315 313 309 309 310 311 305 308 306 298 294 288 283 285 284 271 265 284 300 302 291 286 305 301 301
Wind_Speed_850mb
34 31 27 25 24 23 22 21 20 20 21 22 23 24 25 26 28 29 31 32 33 32 32 30 29 28 26 24 21 20 20 18 15 13 12 14 19 20 24 25 24 23 18
38 32 27 24 22 21 20 19 18 17 18 18 20 21 23 25 27 29 31 31 32 33 34 33 32 30 29 27 26 24 19 17 14 9 10 10 10 13 18 20 21 18 17
31 31 27 24 21 19 18 17 15 14 15 16 16 18 20 22 24 26 29 31 34 35 36 36 36 35 34 31 28 25 24 19 12 8 14 16 16 3 11 16 16 14 15
26 27 25 23 21 19 17 15 13 12 12 12 14 16 18 20 22 25 29 32 34 36 37 38 39 39 37 33 31 28 24 22 17 13 16 22 26 17 4 10 13 11 9
16 27 25 22 20 17 15 13 11 10 9 9 12 13 15 17 19 23 25 28 30 32 34 35 35 37 38 38 33 30 28 25 19 25 18 30 6 12 5 6 14 13 6
21 21 20 19 17 15 13 9 8 7 7 8 10 9 12 14 16 19 21 26 31 36 40 41 37 38 40 40 37 33 30 28 20 19 20 23 29 38 10 1 12 17 15
23 18 12 14 15 13 12 8 6 7 7 5 5 6 9 12 14 17 14 28 32 35 40 38 37 41 47 44 39 27 28 35 22 17 19 18 19 22 11 8 15 17 17
26 17 11 15 15 14 10 7 6 7 5 3 3 4 6 9 14 21 19 27 33 36 38 36 34 39 51 38 24 26 32 34 22 27 20 19 18 14 15 17 17 18 23
27 9 5 16 16 14 12 10 8 8 7 7 5 2 2 5 13 13 24 27 31 33 33 34 33 41 41 29 29 31 37 20 27 37 26 22 13 12 12 15 15 15 22
13 13 5 9 13 11 14 13 8 12 11 10 12 8 8 6 9 11 24 25 22 26 26 28 30 38 40 33 30 31 32 14 19 32 31 17 17 14 20 22 23 24 25
21 25 5 8 12 7 19 11 18 22 9 8 6 9 6 13 18 12 21 23 15 23 24 27 31 38 40 32 30 24 34 26 22 23 35 30 29 35 29 27 28 30 35
31 23 10 9 9 4 12 20 23 20 18 24 43 29 9 4 8 6 6 6 15 22 28 33 40 41 45 41 44 44 42 31 33 36 36 39 43 35 28 27 30 36 41
33 30 37 20 19 14 14 18 21 18 26 21 8 26 35 5 19 20 23 28 31 35 33 45 48 44 46 40 40 40 40 39 35 36 30 42 43 47 35 26 33 41 44
45 38 34 21 23 16 15 9 10 14 20 16 12 31 25 23 21 19 26 31 29 30 43 47 47 57 40 45 46 43 35 35 37 36 36 34 35 35 37 44 36 36 36
38 28 23 24 19 13 7 9 11 12 7 8 18 26 24 26 17 23 28 30 25 33 36 44 46 39 37 42 48 42 38 38 40 41 38 40 46 46 44 41 47 43 35
28 19 32 15 9 13 13 8 8 3 15 15 23 23 25 20 30 37 20 26 27 36 41 48 43 36 42 48 48 50 52 59 50 47 44 40 40 52 41 40 38 29 28
32 26 21 17 15 15 16 13 14 10 13 18 19 13 10 25 29 20 33 40 42 44 48 45 35 36 45 49 54 57 44 38 35 39 40 40 33 37 51 45 27 23 26
30 29 19 13 17 14 10 5 17 11 13 11 27 17 19 19 9 28 44 44 44 48 46 40 43 46 52 61 65 42 37 43 42 38 34 31 32 33 38 37 27 25 20
21 21 16 20 18 8 4 4 10 14 8 12 16 24 33 36 34 34 34 42 42 50 45 53 48 49 63 57 43 47 57 54 54 48 41 34 22 25 25 26 30 24 23
18 23 17 9 14 12 11 2 9 19 22 20 22 13 13 19 25 23 40 38 51 45 52 54 53 66 58 48 51 59 68 51 46 42 47 45 30 27 21 28 25 27 36
22 16 11 8 11 13 11 5 4 16 20 24 18 17 14 17 31 38 38 50 45 55 63 54 53 62 51 53 55 52 52 39 31 16 20 27 28 29 24 21 22 40 36
19 30 19 27 20 12 11 7 14 15 25 20 21 15 18 25 32 36 40 38 44 58 52 50 54 59 48 36 40 43 32 45 18 5 17 21 9 14 14 17 27 31 42
35 58 28 36 32 17 14 14 17 20 22 19 9 13 13 16 26 27 30 35 50 49 45 46 55 42 40 40 36 31 15 10 41 38 30 12 13 5 11 23 25 31 37
17 53 12 20 35 16 15 8 15 17 19 16 11 15 24 34 31 34 35 43 49 47 47 53 55 34 41 43 33 29 29 34 21 43 35 27 23 19 15 11 12 16 22
21 20 21 38 20 18 17 14 17 19 25 26 25 31 28 28 23 37 43 54 49 47 52 58 39 42 43 44 37 35 34 32 34 27 50 30 15 22 20 17 14 14 20
25 7 26 12 20 19 20 21 24 26 37 34 34 28 31 33 43 50 45 45 51 56 54 49 41 44 40 38 32 29 31 34 36 31 26 42 42 36 29 25 24 24 25
Wind_Direction_850mb
141 142 144 136 127 121 114 105 96 89 85 80 77 74 72 70 69 67 65 61 57 52 47 42 36 31 25 18 15 13 10 13 23 32 40 47 49 47 41 23 42 53 61
150 148 147 141 133 125 117 109 100 90 83 77 76 76 76 73 72 69 67 61 56 51 46 39 33 25 18 13 8 4 4 8 17 358 342 13 37 36 51 31 24 44 64
150 152 150 147 140 134 125 116 105 96 87 81 77 76 76 72 73 70 65 59 53 48 43 37 31 25 18 12 8 5 360 359 7 342 313 322 330 314 46 39 11 32 53
154 155 156 153 149 145 139 130 114 101 95 89 85 82 79 75 76 72 65 57 48 41 34 29 24 19 13 9 5 0 1 357 355 341 357 353 293 227 73 25 351 7 46
166 167 162 160 156 153 147 138 121 110 102 95 88 80 84 80 79 75 65 53 44 35 26 19 15 11 6 360 359 358 354 353 351 348 345 10 330 196 187 38 337 316 347
139 155 162 165 166 163 158 144 127 107 87 80 79 73 79 77 69 60 52 41 31 21 12 4 1 1 359 354 348 346 349 355 350 354 350 340 320 306 198 266 311 310 307
157 144 157 179 175 178 172 155 129 100 83 90 93 103 95 80 59 38 37 32 21 21 13 3 6 6 357 355 350 6 14 2 345 343 332 318 320 306 265 251 289 302 296
181 169 192 195 188 192 178 160 135 111 86 70 92 118 100 75 44 31 31 17 13 13 17 9 7 1 360 2 16 4 1 2 16 9 356 332 305 259 246 246 275 291 297
176 161 193 205 195 190 175 158 140 136 121 97 86 70 41 37 31 20 14 4 0 7 5 360 359 356 0 6 356 345 341 3 358 3 339 322 281 261 239 276 279 302 300
189 217 128 181 172 186 169 142 109 134 137 150 157 154 268 314 323 11 359 349 349 357 358 352 351 351 343 334 331 335 342 318 333 347 341 327 282 272 286 292 295 295 295
210 202 198 212 167 161 180 168 156 177 181 210 263 197 177 284 297 328 347 338 330 346 337 332 330 339 331 318 314 320 319 309 285 309 320 308 296 294 280 283 292 295 295
200 191 214 204 168 175 195 199 199 187 283 256 300 215 179 210 290 294 332 8 329 321 314 319 314 325 328 306 300 301 301 307 306 283 299 300 297 278 278 286 290 291 293
181 173 175 139 167 149 187 201 231 292 320 305 272 202 205 277 244 248 265 295 285 303 303 309 324 312 326 319 316 307 294 286 290 286 283 291 278 272 271 298 306 302 303
182 197 208 216 201 205 240 247 271 310 328 14 25 151 168 194 236 271 276 287 289 307 306 314 312 312 317 312 313 316 303 284 284 286 289 289 282 266 281 297 298 301 303
199 199 205 200 198 242 275 247 279 295 329 84 135 154 168 220 270 297 296 301 294 299 302 302 299 315 309 305 304 302 297 285 275 273 281 293 283 280 287 293 294 290 292
177 168 176 195 244 268 282 282 337 69 106 135 153 163 212 248 289 304 290 304 300 312 307 309 322 315 304 300 299 295 293 290 283 278 276 284 298 285 273 278 274 280 289
161 158 166 175 221 264 272 284 115 110 101 116 154 193 286 309 302 315 314 317 311 317 312 319 324 304 304 301 302 295 310 304 294 277 281 285 284 279 267 272 251 257 253
205 202 200 172 228 258 261 192 177 183 221 263 295 257 264 285 255 304 294 300 304 309 314 311 306 304 304 304 310 312 297 290 290 287 282 281 281 296 257 256 251 257 243
199 210 193 199 236 270 284 223 196 246 301 282 9 308 270 270 296 306 281 299 295 320 317 309 307 309 311 311 311 302 305 301 289 272 268 268 290 282 282 254 258 255 268
215 240 245 208 232 270 280 64 222 267 294 303 314 310 275 272 287 280 301 291 312 315 306 316 315 319 313 310 304 303 304 308 308 290 275 271 274 285 251 248 251 255 267
202 227 329 278 280 284 230 149 302 278 305 311 329 297 303 294 299 300 296 314 316 307 313 313 310 324 310 311 312 315 320 332 321 331 0 275 273 265 251 246 252 270 266
21 82 347 290 282 255 198 196 248 278 302 319 325 314 316 282 282 304 314 311 304 306 300 301 314 317 308 319 321 322 330 340 349 260 22 22 276 250 239 267 263 269 277
125 57 269 258 253 256 237 238 253 295 306 309 285 297 262 291 316 304 300 295 303 296 290 305 313 310 310 310 304 302 323 309 322 299 303 299 358 324 252 266 278 281 290
184 313 220 235 252 246 257 277 311 307 311 291 290 292 305 307 297 289 293 304 304 296 304 313 317 304 305 307 303 289 283 288 313 304 297 285 304 315 304 324 301 306 299
107 165 172 268 249 252 288 293 276 286 286 280 293 299 304 307 292 303 303 300 307 304 309 315 305 308 307 299 293 291 286 285 286 265 291 302 290 285 307 323 322 332 328
107 132 299 205 240 292 296 300 315 306 312 301 313 299 306 303 303 311 315 313 309 309 310 311 305 308 306 298 294 288 283 285 284 271 265 284 300 302 291 286 305 301 301